Regional Weather Roundup
Issued by NWS

Home | Current Version | Previous Version | Text Only | Print | Product List | Glossary On
Versions: 1 2 3 4 5 6 7 8 9 10 11 12 13 14 15 16 17 18 19 20 21 22 23 24 25 26 27 28 29 30 31 32 33 34 35 36 37 38 39 40 41 42 43 44 45 46 47 48 49 50
000
ASUS42 KFFC 220203
RWRGA
WEATHER ROUNDUP FOR GEORGIA
NATIONAL WEATHER SERVICE PEACHTREE CITY GA
1000 PM EDT TUE OCT 21 2014

NOTE: "FAIR" INDICATES FEW OR NO CLOUDS BELOW 12,000 FEET WITH NO
SIGNIFICANT WEATHER AND/OR OBSTRUCTIONS TO VISIBILITY.

* = USE WITH CAUTION. THE STATIONS MARKED WITH AN ASTERISK MAY NOT
REPORT WEATHER SUCH AS PRECIPITATION, FOG, OR THUNDER AND ARE NOT
QUALITY CONTROLLED BY NWS.

THE REMARK "TC" DENOTES TEMPERATURE READING IN DEGREES CELSIUS.

GAZ001>058-220300-
NORTH GEORGIA

CITY           SKY/WX    TMP DP  RH WIND       PRES   REMARKS
ATLANTA        CLEAR     62  47  57 N8        30.01R
ATHENS         CLEAR     59  47  64 NW5       29.99R
CHAMBLEE       CLEAR     58  45  62 N7        30.01R
PEACHTREE CITY CLEAR     55  52  89 CALM      30.02R
ROME           CLEAR     56  48  74 CALM      30.03R
WEST ATLANTA   CLEAR     55  32  41 CALM      30.02R
GAINESVILLE    CLEAR     56  47  71 W3        30.02R
CARTERSVILLE   CLEAR     53  48  83 CALM      30.03R


CITY           SKY/WX    TMP DP  RH WIND       PRES   REMARKS
DALTON*        CLEAR     54  48  82 N8        30.04R
MARIETTA       CLEAR     60  48  64 NW7       30.02R
KENNESAW*      CLEAR     59  45  58 CALM      30.04R
$$

GAZ059>098-102>109-220300-
CENTRAL GEORGIA

CITY           SKY/WX    TMP DP  RH WIND       PRES   REMARKS
AUGUSTA-BUSH   CLEAR     67  48  50 NW10      29.95R
AUGUSTA-DANIEL CLEAR     67  49  52 NW9       29.96R
COLUMBUS       CLEAR     66  55  67 CALM      30.00R
MACON          CLEAR     58  56  93 W5        29.99R
ROBINS AFB     CLEAR     59  55  87 CALM      29.98R


CITY           SKY/WX    TMP DP  RH WIND       PRES   REMARKS
LAGRANGE*      CLEAR     58  56  94 CALM      30.02R
SYLVANIA*      CLEAR     63  58  84 CALM      29.96R
MILLEDGEVILLE* CLEAR     59  55  88 CALM      29.99R
$$

GAZ099>101-110>166-220300-
SOUTH GEORGIA

CITY           SKY/WX    TMP DP  RH WIND       PRES   REMARKS
SAVANNAH       CLEAR     64  57  78 W3        29.95R
VALDOSTA       CLEAR     58  52  80 CALM      29.98R
ALMA           CLEAR     59  55  87 CALM      29.97R
ST SIMONS      CLEAR     65  61  87 CALM      29.96R
FT STEWART     CLEAR     61  55  80 CALM      29.95R
ALBANY         CLEAR     59  55  87 CALM      30.01R
HUNTER AFB     CLEAR     62  58  84 W7        29.93R
MOODY AFB      CLEAR     61  54  77 CALM      29.98R
BRUNSWICK      CLEAR     61  57  88 CALM      29.97R


CITY           SKY/WX    TMP DP  RH WIND       PRES   REMARKS
BAINBRIDGE*    CLEAR     63  57  82 NW3       30.00R
MOULTRIE*      CLEAR     63  59  88 CALM      29.99R
VIDALIA*       CLEAR     61  54  77 CALM      29.97R
WAYCROSS*      CLEAR     63  60  91 CALM      29.98R
DOUGLAS*       CLEAR     59  55  88 CALM      30.00R
$$



USA.gov is the U.S. government's official web portal to all federal, state and local government web resources and services.